Latest Weather Observations for Jimna

IDQ60801

Issued at 1:05 am EST Thursday 18 September 2014 (issued every 30 minutes, with the page automatically refreshed every 10 minutes)

About weather observations | Map of weather stations | Latest weather observations for QLD | Other Formats
Station Details ID: 040651 Name: JIMNA FORESTRY Lat: -26.66 Lon: 152.46 Height: 523.0 m
Data from the previous 72 hours. | See also: Recent months at Jimna
Date/Time
EST
Temp
°C
App
Temp
°C
Dew
Point
Rel
Hum
%
Delta-T
°C
Wind Press
QNH
hPa
Press
MSL
hPa
Rain
since 9 am
mm
Dir
 
Spd
km/h
Gust
km/h
Spd
kts
Gust
kts
18/01:00am 11.2 - 1.2 50 4.3 - - - - - - - 0.0
18/12:30am 11.8 - 0.6 46 4.8 - - - - - - - 0.0
18/12:00am 12.6 - 0.4 43 5.2 - - - - - - - 0.0
 
Date/Time
EST
Temp
°C
App
Temp
°C
Dew
Point
Rel
Hum
%
Delta-T
°C
Wind Press
QNH
hPa
Press
MSL
hPa
Rain
since 9 am
mm
Dir
 
Spd
km/h
Gust
km/h
Spd
kts
Gust
kts
17/11:30pm 13.2 - 0.3 41 5.6 - - - - - - - 0.0
17/11:00pm 13.5 - -0.2 39 5.9 - - - - - - - 0.0
17/10:30pm 14.1 - -0.7 36 6.3 - - - - - - - 0.0
17/10:00pm 14.1 - -0.4 37 6.2 - - - - - - - 0.0
17/09:30pm 14.5 - -0.4 36 6.4 - - - - - - - 0.0
17/09:00pm 14.5 - -0.8 35 6.5 - - - - - - - 0.0
17/08:30pm 14.3 - -1.3 34 6.6 - - - - - - - 0.0
17/08:00pm 14.9 - -1.6 32 6.9 - - - - - - - 0.0
17/07:30pm 15.5 - -2.0 30 7.3 - - - - - - - 0.0
17/07:00pm 16.3 - -2.2 28 7.8 - - - - - - - 0.0
17/06:30pm 18.0 - -1.8 26 8.5 - - - - - - - 0.0
17/06:00pm 21.3 - -5.5 16 11.0 - - - - - - - 0.0
17/05:30pm 22.6 - -6.2 14 11.9 - - - - - - - 0.0
17/05:00pm 23.6 - -5.4 14 12.2 - - - - - - - 0.0
17/04:30pm 24.2 - -5.0 14 12.5 - - - - - - - 0.0
17/04:00pm 24.9 - -4.4 14 12.7 - - - - - - - 0.0
17/03:30pm 25.2 - -3.2 15 12.7 - - - - - - - 0.0
17/03:00pm 25.6 - -2.9 15 12.8 - - - - - - - 0.0
17/02:30pm 25.2 - -3.2 15 12.7 - - - - - - - 0.0
17/02:00pm 25.3 - -1.5 17 12.3 - - - - - - - 0.0
17/01:30pm 25.1 - -0.1 19 11.9 - - - - - - - 0.0
17/01:00pm 25.3 - 2.1 22 11.4 - - - - - - - 0.0
17/12:30pm 25.0 - 3.6 25 10.8 - - - - - - - 0.0
17/12:00pm 24.0 - 2.2 24 10.7 - - - - - - - 0.0
17/11:30am 24.0 - 2.2 24 10.7 - - - - - - - 0.0
17/11:00am 23.5 - 3.4 27 10.0 - - - - - - - 0.0
17/10:30am 23.2 - 6.0 33 9.0 - - - - - - - 0.0
17/10:00am 21.1 - 3.3 31 8.7 - - - - - - - 0.0
17/09:30am 20.9 - 3.6 32 8.5 - - - - - - - 0.0
17/09:00am 19.9 - 2.7 32 8.2 - - - - - - - 0.2
17/08:30am 18.8 - 7.9 49 5.7 - - - - - - - 0.2
17/08:00am 17.1 - 9.3 60 4.2 - - - - - - - 0.2
17/07:30am 13.8 - 10.6 81 1.7 - - - - - - - 0.2
17/07:00am 10.6 - 8.7 88 1.0 - - - - - - - 0.2
17/06:30am 8.1 - 7.0 93 0.5 - - - - - - - 0.2
17/06:00am 7.3 - 5.9 91 0.7 - - - - - - - 0.2
17/05:30am 7.4 - 6.0 91 0.7 - - - - - - - 0.2
17/05:00am 7.9 - 6.5 91 0.7 - - - - - - - 0.2
17/04:30am 8.0 - 6.5 90 0.7 - - - - - - - 0.2
17/04:00am 8.4 - 6.7 89 0.8 - - - - - - - 0.2
17/03:30am 8.8 - 6.9 88 0.9 - - - - - - - 0.2
17/03:00am 9.4 - 7.5 88 0.9 - - - - - - - 0.2
17/02:30am 9.8 - 7.6 86 1.1 - - - - - - - 0.2
17/02:00am 10.6 - 7.8 83 1.4 - - - - - - - 0.2
17/01:30am 11.2 - 8.2 82 1.5 - - - - - - - 0.2
17/01:00am 11.9 - 8.4 79 1.8 - - - - - - - 0.2
17/12:30am 12.7 - 8.6 76 2.1 - - - - - - - 0.2
17/12:00am 13.2 - 8.9 75 2.2 - - - - - - - 0.2
 
Date/Time
EST
Temp
°C
App
Temp
°C
Dew
Point
Rel
Hum
%
Delta-T
°C
Wind Press
QNH
hPa
Press
MSL
hPa
Rain
since 9 am
mm
Dir
 
Spd
km/h
Gust
km/h
Spd
kts
Gust
kts
16/11:30pm 14.0 - 9.0 72 2.6 - - - - - - - 0.2
16/11:00pm 14.3 - 9.3 72 2.6 - - - - - - - 0.2
16/10:30pm 14.7 - 9.5 71 2.8 - - - - - - - 0.2
16/10:00pm 15.0 - 10.0 72 2.7 - - - - - - - 0.2
16/09:30pm 15.2 - 10.4 73 2.6 - - - - - - - 0.2
16/09:00pm 15.9 - 11.3 74 2.5 - - - - - - - 0.2
16/08:30pm 15.2 - 11.6 79 2.0 - - - - - - - 0.2
16/08:00pm 14.9 - 11.1 78 2.1 - - - - - - - 0.2
16/07:30pm 15.3 - 11.5 78 2.1 - - - - - - - 0.2
16/07:00pm 16.1 - 11.1 72 2.8 - - - - - - - 0.2
16/06:30pm 16.8 - 10.6 67 3.4 - - - - - - - 0.2
16/06:00pm 21.0 - 5.4 36 7.9 - - - - - - - 0.0
16/05:30pm 21.8 - 5.7 35 8.3 - - - - - - - 0.0
16/05:00pm 23.2 - 3.7 28 9.7 - - - - - - - 0.0
16/04:30pm 24.1 - 4.0 27 10.2 - - - - - - - 0.0
16/04:00pm 25.0 - 7.6 33 9.4 - - - - - - - 0.0
16/03:30pm 24.8 - 6.5 31 9.7 - - - - - - - 0.0
16/03:00pm 25.4 - 5.1 27 10.5 - - - - - - - 0.0
16/02:30pm 25.6 - 3.5 24 11.2 - - - - - - - 0.0
16/02:00pm 24.7 - 4.5 27 10.3 - - - - - - - 0.0
16/01:30pm 24.8 - 5.6 29 10.0 - - - - - - - 0.0
16/01:00pm 25.6 - 5.2 27 10.6 - - - - - - - 0.0
16/12:30pm 25.2 - 7.3 32 9.7 - - - - - - - 0.0
16/12:00pm 24.9 - 6.6 31 9.7 - - - - - - - 0.0
16/11:30am 24.3 - 5.6 30 9.7 - - - - - - - 0.0
16/11:00am 23.7 - 6.5 33 9.1 - - - - - - - 0.0
16/10:30am 23.1 - 6.4 34 8.8 - - - - - - - 0.0
16/10:00am 22.4 - 5.8 34 8.6 - - - - - - - 0.0
16/09:30am 21.5 - 6.2 37 7.9 - - - - - - - 0.0
16/09:00am 20.7 - 8.4 45 6.6 - - - - - - - 0.0
16/08:30am 19.2 - 8.8 51 5.6 - - - - - - - 0.0
16/08:00am 18.0 - 10.1 60 4.3 - - - - - - - 0.0
16/07:30am 15.8 - 10.8 72 2.7 - - - - - - - 0.0
16/07:00am 12.1 - 10.7 91 0.7 - - - - - - - 0.0
16/06:30am 9.8 - 8.7 93 0.6 - - - - - - - 0.0
16/06:00am 9.1 - 8.0 93 0.5 - - - - - - - 0.0
16/05:30am 8.8 - 7.6 92 0.6 - - - - - - - 0.0
16/05:00am 9.0 - 7.6 91 0.7 - - - - - - - 0.0
16/04:30am 9.4 - 8.2 92 0.6 - - - - - - - 0.0
16/04:00am 9.6 - 8.2 91 0.7 - - - - - - - 0.0
16/03:30am 10.0 - 8.6 91 0.7 - - - - - - - 0.0
16/03:00am 10.2 - 8.8 91 0.7 - - - - - - - 0.0
16/02:30am 10.8 - 9.4 91 0.7 - - - - - - - 0.0
16/02:00am 11.3 - 9.9 91 0.7 - - - - - - - 0.0
16/01:30am 11.5 - 9.9 90 0.8 - - - - - - - 0.0
16/01:00am 11.8 - 10.2 90 0.8 - - - - - - - 0.0
16/12:30am 12.1 - 10.3 89 1.0 - - - - - - - 0.0
16/12:00am 12.7 - 10.9 89 1.0 - - - - - - - 0.0
 
Date/Time
EST
Temp
°C
App
Temp
°C
Dew
Point
Rel
Hum
%
Delta-T
°C
Wind Press
QNH
hPa
Press
MSL
hPa
Rain
since 9 am
mm
Dir
 
Spd
km/h
Gust
km/h
Spd
kts
Gust
kts
15/11:30pm 12.5 - 10.6 88 1.0 - - - - - - - 0.0
15/11:00pm 12.8 - 10.7 87 1.1 - - - - - - - 0.0
15/10:30pm 13.2 - 10.9 86 1.2 - - - - - - - 0.0
15/10:00pm 13.5 - 10.9 84 1.4 - - - - - - - 0.0
15/09:30pm 13.7 - 10.5 81 1.7 - - - - - - - 0.0
15/09:00pm 14.3 - 10.7 79 1.9 - - - - - - - 0.0
15/08:30pm 15.0 - 11.0 77 2.2 - - - - - - - 0.0
15/08:00pm 15.7 - 11.3 75 2.4 - - - - - - - 0.0
15/07:30pm 15.7 - 11.3 75 2.4 - - - - - - - 0.0
15/07:00pm 15.4 - 9.7 69 3.0 - - - - - - - 0.0
15/06:30pm 16.0 - 9.2 64 3.6 - - - - - - - 0.0
15/06:00pm 16.3 - 9.5 64 3.6 - - - - - - - 0.0
15/05:30pm 17.5 - 8.9 57 4.6 - - - - - - - 0.0
15/05:00pm 19.2 - 8.8 51 5.6 - - - - - - - 0.0
15/04:30pm 20.5 - 8.5 46 6.4 - - - - - - - 0.0
15/04:00pm 20.8 - 8.4 45 6.7 - - - - - - - 0.0
15/03:30pm 20.9 - 7.9 43 6.9 - - - - - - - 0.0
15/03:00pm 20.6 - 7.6 43 6.9 - - - - - - - 0.0
15/02:30pm 21.5 - 8.4 43 7.1 - - - - - - - 0.0
15/02:00pm 22.1 - 7.9 40 7.6 - - - - - - - 0.0
15/01:30pm 23.5 - 8.0 37 8.4 - - - - - - - 0.0
15/01:00pm 22.1 - 5.9 35 8.4 - - - - - - - 0.0
15/12:30pm 23.1 - 7.2 36 8.5 - - - - - - - 0.0
15/12:00pm 21.5 - 5.4 35 8.2 - - - - - - - 0.0
15/11:30am 21.7 - 9.3 45 6.8 - - - - - - - 0.0
15/11:00am 20.5 - 7.5 43 6.9 - - - - - - - 0.0
15/10:30am 21.7 - 8.2 42 7.3 - - - - - - - 0.0
15/10:00am 20.7 - 8.4 45 6.6 - - - - - - - 0.0
15/09:30am 19.7 - 9.0 50 5.8 - - - - - - - 0.0
15/09:00am 18.6 - 9.9 57 4.7 - - - - - - - 0.0
15/08:30am 16.9 - 9.3 61 4.1 - - - - - - - 0.0
15/08:00am 15.2 - 12.0 81 1.8 - - - - - - - 0.0
15/07:30am 12.5 - 10.9 90 0.9 - - - - - - - 0.0
15/07:00am 9.5 - 9.8 - - - - - - - - - 0.0
15/06:30am 7.6 - 7.7 - - - - - - - - - 0.0
15/06:00am 6.5 - 5.5 93 0.5 - - - - - - - 0.0
15/05:30am 6.5 - 5.5 93 0.5 - - - - - - - 0.0
15/05:00am 7.0 - 6.1 94 0.4 - - - - - - - 0.0
15/04:30am 7.1 - 6.2 94 0.4 - - - - - - - 0.0
15/04:00am 6.8 - 5.7 93 0.5 - - - - - - - 0.0
15/03:30am 6.8 - 5.7 93 0.5 - - - - - - - 0.0
15/03:00am 7.0 - 5.9 93 0.5 - - - - - - - 0.0
15/02:30am 7.5 - 6.4 93 0.5 - - - - - - - 0.0
15/02:00am 7.9 - 6.8 93 0.5 - - - - - - - 0.0
15/01:30am 8.3 - 7.1 92 0.6 - - - - - - - 0.0

Other Formats:

Comma delimited format used in spreadsheet applications
http://www.bom.gov.au/fwo/IDQ60801/IDQ60801.94557.axf

JavaScript Object Notation format (JSON) in row-major order
http://www.bom.gov.au/fwo/IDQ60801/IDQ60801.94557.json